Regional Weather Roundup
Issued by NWS Grand Forks, ND

Home | Current Version | Previous Version | Graphics & Text | Print | Product List | Glossary Off
Versions: 1 2 3 4 5 6 7 8 9 10 11 12 13 14 15 16 17 18 19 20 21 22 23 24 25 26 27 28 29 30 31 32 33 34 35 36 37 38 39 40 41 42 43 44 45 46 47 48 49 50

290
ASUS43 KFGF 130231
RWRFGF
PRAIRIE TO PINES  WEATHER ROUNDUP
NATIONAL WEATHER SERVICE EASTERN NORTH DAKOTA/GRAND FORKS ND
800 PM CST FRI FEB 12 2016

 **SATELLITE DATA USED TO AUGMENT SKY COVER AT AUTOMATED STATIONS**
 *****  WEATHER ACROSS EASTERN NORTH DAKOTA  *****

CITY           SKY/WX    TMP DP  RH WIND       PRES   REMARKS
GRAND FORKS    CLOUDY    -4 -12  68 NW6       30.68R WCI -16
GRAND FRKS AFB CLOUDY    -6 -15  66 NW7       30.67S WCI -20
DEVILS LAKE    CLOUDY   -14 -18  82 CALM      30.61F
FARGO          CLOUDY    -3 -12  65 NW9       30.68S WCI -19
WAHPETON ARPT  CLOUDY    -4 -11  71 NW8       30.68R WCI -19
$$

 ***** WEATHER ACROSS CENTRAL AND WESTERN NORTH DAKOTA  *****

CITY           SKY/WX    TMP DP  RH WIND       PRES   REMARKS
BISMARCK       PTCLDY     6  -2  69 SE7       30.57S WCI  -6
MINOT          CLOUDY     2  -8  63 E6        30.53S WCI  -9
JAMESTOWN      CLOUDY    -5 -12  72 NE3       30.60F
MINOT AFB      CLOUDY    -4 -12  70 CALM      30.54R
GARRISON         N/A      5  -3  69 SE10      30.51S WCI -10
WILLISTON      CLOUDY    13   2  61 SE12      30.42F WCI  -1
DICKINSON      CLOUDY    10   2  69 SE15      30.37F WCI  -7
HETTINGER      CLOUDY    11   4  73 SE14      30.39F WCI  -5
$$

 *****  OTHER AIRPORT OBSERVATIONS IN OUR AREA  *****

CITY           SKY/WX    TMP DP  RH WIND       PRES   REMARKS
WALHALLA       FAIR      -6 -13  71 CALM      30.66F
GRAFTON AIRPOR FAIR      -6 -13  71 N3        30.70S
VALLEY CITY AR FAIR     -11 -17  77 NW7       30.64F WCI -26
CANDO          FAIR     -17 -20  83 S6        30.62F WCI -31
CAVALIER APRT  FAIR      -6 -11  77 CALM      30.67F
GWINNER        FAIR      -4 N/A N/A NW6       30.65S WCI -16
SHEYENNE NWR     N/A    -14 -21  69 W3        29.95S
ROLLA          FAIR     -18 -24  76 CALM      30.55F
 ***** THE ABOVE OBSERVATIONS ARE NON NWS ARE NOT QUALITY
       CONTROLLED AND MAY MIS-REPORT RAIN FOR SNOW...
$$

  *****  WEATHER ACROSS NORTHERN MINNESOTA  *****

CITY           SKY/WX    TMP DP  RH WIND       PRES   REMARKS
FLAG ISLAND    CLOUDY   -11 -20  64 NW8       30.57F WCI -28
WARROAD        CLOUDY   -11 -20  64 W7        30.60R WCI -26
ROSEAU         CLOUDY   -11 -18  70 W6        30.61S WCI -25
HALLOCK        CLOUDY    -9 -17  70 NW3       30.66F
THF RVR FALLS  CLOUDY    -9 -27  41 NW10      30.63S WCI -28
BAUDETTE       CLOUDY   -10 -21  58 NW13      30.54S WCI -30
WASKISH        CLOUDY   -11 -18  70 W7        30.57R WCI -26
CROOKSTON      CLOUDY    -8 -13  77 N5        30.68S WCI -19
STEPHEN NDAWN    N/A     -9 -15  77 N2          N/A
GREENBUSH NDAW   N/A    -17 -20  83 NW3         N/A
$$
  *****  WEATHER ACROSS CENTRAL AND WEST MINNESOTA  *****

CITY           SKY/WX    TMP DP  RH WIND       PRES   REMARKS
FOSSTON          N/A    -15 -18  84 NW5       30.61R WCI -27
BEMIDJI        CLOUDY   -11 -17  75 NW9       30.55S WCI -29
PARK RAPIDS    CLOUDY    -9 -17  68 NW9       30.55R WCI -26
ELBOW LAKE     FAIR      -3  -9  74 NW9       30.63R WCI -19
WADENA         CLOUDY    -9 -15  77 NW12      30.56F WCI -29
DETROIT LAKES  CLOUDY    -8 -13  77 NW8       30.60S WCI -23
MOORHEAD       PTCLDY    -4 -11  71 NW7       30.68R WCI -18
FERGUS FALLS   CLOUDY    -6 -11  77 N10       30.68R WCI -23
MORRIS MN      CLOUDY    -2  -8  78 NW12      30.62S WCI -20
STAPLES        CLOUDY    -8 -17  65 NW13      30.56F WCI -28
$$
  *****  WEATHER ELSEWHERE ACROSS MINNESOTA  *****

CITY           SKY/WX    TMP DP  RH WIND       PRES   REMARKS
DULUTH         CLEAR     -3 -18  48 NW15G23   30.43R WCI -23
INTRNTL FALLS  CLOUDY    -9 -19  61 NW12      30.52S WCI -28
ELY            CLEAR     -9 -18  64 NW7       30.43S WCI -24
CLOQUET        CLEAR     -4 -18  50 NW10G16   30.46S WCI -21
WHEATON        CLOUDY    -4  -9  77 NW7       30.68S WCI -18
BRAINERD       CLOUDY    -2 -16  51 NW12      30.55R WCI -20
HIBBING        CLEAR     -7 -18  59 NW16      30.47R WCI -29
ALEXANDRIA     CLOUDY    -4 -15  59 NW14      30.56F WCI -24
SAINT CLOUD    CLOUDY     0 -11  59 NW13      30.57R WCI -18
MINNEAPOLIS    CLEAR      5 -10  50 NW10      30.56R WCI -10
$$

  *****  WEATHER ACROSS SOUTH DAKOTA  *****

CITY           SKY/WX    TMP DP  RH WIND       PRES   REMARKS
SIOUX FALLS    CLOUDY     4  -5  66 N3        30.60R
BROOKINGS      CLOUDY     0  -8  69 N9        30.58R WCI -15
WATERTOWN      CLOUDY    -2 -11  65 NW7       30.57S WCI -15
HURON          PTCLDY     5  -4  66 N9        30.64S WCI  -9
SISSETON         N/A     -6 -11  79 N8        30.65R WCI -21
ABERDEEN       CLEAR      2  -8  63 NE5       30.64F WCI  -8
MITCHELL       MOCLDY     9   0  67 N8        30.65R WCI  -3
PIERRE         CLOUDY    13   6  74 E14       30.54F WCI  -2
MOBRIDGE       MOCLDY     9   2  73 E12       30.52F WCI  -6
RAPID CITY     CLOUDY    22  20  92 SE12      30.34S WCI  10
$$

  *****  SOME WEATHER IN NEARBY STATES *****

CITY           SKY/WX    TMP DP  RH WIND       PRES   REMARKS
GLASGOW MT     LGT SNOW  17  12  80 E21       30.22F WCI   0
GREAT FALLS MT PTCLDY    49  33  54 SW15      30.00S
CHEYENNE WY    PTCLDY    37  27  67 SW12      30.24S
SCOTTSBLUFF NE CLOUDY    33  30  88 SE17      30.29F WCI  22
OMAHA NE       CLOUDY    14   3  61 N9        30.62S WCI   2
DES MOINES IA  CLOUDY    10  -1  61 N7        30.58R WCI  -1
DAVENPORT IA   CLEAR     10  -2  58 NW17G25   30.47R WCI  -8
CHICAGO IL     PTCLDY    13  -6  42 NW18G29   30.35R WCI  -4
EAU CLAIRE WI  CLEAR      2 -16  42 NW5       30.49R WCI  -8
LA CROSSE WI   CLEAR      5 -10  50 NW10      30.51R WCI -10
$$

  *****  SOME NATIONAL WEATHER *****

CITY           SKY/WX    TMP DP  RH WIND       PRES   REMARKS
LA GUARDIA NY  CLOUDY    24   5  44 W10       29.97F WCI  14
RALEIGH NC     CLOUDY    31  22  69 SW7       30.04F WCI  24
ATLANTA GA     PTCLDY    51  29  42 NW14G24   30.13R
NEW ORLEANS LA PTCLDY    64  52  64 NW6       30.23R
OKLAHOMA CITY  CLEAR     47  28  47 NE12      30.39R
ALBUQUERQUE NM CLEAR     58  17  20 SW3       30.30R
SALT LAKE CITY CLOUDY    30  27  88 W3        30.35S FOG
LOS ANGELES CA PTCLDY    63  53  70 W7        30.05S
BOISE ID       CLOUDY    44  35  70 CALM      30.21F
SEATTLE WA     MOCLDY    53  44  71 SW8       30.15R
$$

*** WEATHER ACROSS MANITOBA...SASKATCHEWAN AND ONTARIO ***
                ***ONTARIO***

CITY           SKY/WX    TMP DP  RH WIND       PRES   REMARKS
GERALDTON      CRYSTALS -15 -20  76 NW8       30.24R WCI -32
THUNDER BAY    CLEAR     -6 -17  59 W13       30.41R WCI -25
SIOUX LOOKOUT  CLEAR    -11 -18  70 NW12      30.42R WCI -31
TORONTO        FLURRIES  14   7  73 N23G33    29.91R WCI  -5
BIG TROUT LK   CLEAR    -18 -24  76 NW10      30.35S WCI -39
PICKLE LAKE    CRYSTALS -15 -24  64 NW9       30.32R WCI -33
DRYDEN         CLEAR    -11 -18  70 W12       30.45R WCI -31
KENORA         CLEAR    -13 -20  70 NW9       30.52S WCI -31
$$
                *** MANITOBA***

CITY           SKY/WX    TMP DP  RH WIND       PRES   REMARKS
BRANDON        PTCLDY   -18 -24  76 W3        30.59F
DAUPHIN        CLEAR     -9 -18  64 SE5       30.61F WCI -21
ISLAND LAKE    NOT AVBL
PILOT MOUND      N/A    -13 -18  77 SW5         N/A  WCI -25
THE PAS        CLEAR    -18 -26  69 CALM      30.58F
THOMPSON       CLEAR    -15 -20  76 W5        30.53F WCI -27
WINNIPEG       CLEAR    -15 -22  70 NW6       30.66F WCI -29
LYNN LAKE      CLEAR    -18 -24  76 SW5       30.48F WCI -31
CHURCHILL      CRYSTALS -17 -24  70 NW18      30.45F WCI -43
GILLAM         PTCLDY   -13 -20  70 W12       30.46F WCI -33
$$
                ***SASKATCHEWAN***

CITY           SKY/WX    TMP DP  RH WIND       PRES   REMARKS
ESTEVAN        PTCLDY     3  -4  72 E13G20    30.45F WCI -14
KINDERSLEY     SNOW      14  10  85 SE23G30   30.10F VSB 1/4 WCI  -5
LLOYDMINSTER   CLOUDY     5   0  78 SE20G28   30.13F WCI -15
PRINCE ALBERT  PTCLDY   -15 -22  70 E8        30.44  WCI -32
REGINA         MOCLDY     7  -2  66 SE16      30.38F WCI -11
YORKTON        CLEAR    -15 -18  84 SE5       30.51F WCI -27
N. BATTLEFORD  CLOUDY     3  -2  78 E23G31    30.25F WCI -19
LA RONGE       CLEAR    -18 -26  69 NE2       30.43F
SASKATOON      MOCLDY     3  -4  72 SE20      30.33F WCI -18
SWIFT CURRENT  CLOUDY    14  10  85 SE23G29   30.12F WCI  -5
$$
NOTE: THESE ARE AUTOMATED STATIONS WITH LIMITED QUALITY CONTROL
      "FAIR" INDICATES FEW OR NO CLOUDS BELOW 12,000 FEET WITH NO
      SIGNIFICANT WEATHER AND/OR OBSTRUCTIONS TO VISIBILITY.
      SKY/WX - SKY CONDITION AND SIGNIFICANT WEATHER.
      TMP - AIR TEMPERATURE.    DP   - DEWPOINT TEMPERATURE.
      RH  - RELATIVE HUMIDITY.  PRES - PRESSURE.
      HX  - HEAT INDEX.         WCI  - WIND CHILL INDEX.
$




USA.gov is the U.S. government's official web portal to all federal, state and local government web resources and services.